PDT,Max TemperatureF,Mean TemperatureF,Min TemperatureF,Max Dew PointF,MeanDew PointF,Min DewpointF,Max Humidity, Mean Humidity, Min Humidity, Max Sea Level PressureIn, Mean Sea Level PressureIn, Min Sea Level PressureIn, Max VisibilityMiles, Mean VisibilityMiles, Min VisibilityMiles, Max Wind SpeedMPH, Mean Wind SpeedMPH, Max Gust SpeedMPH,PrecipitationIn, CloudCover, Events, WindDirDegrees
2013-7-1,98,80,62,63,56,48,60,41,29,30.03,29.99,29.93,10,10,10,16,6,22,0.00,0,,338
2013-7-2,100,83,66,61,56,48,64,39,19,30.08,30.04,29.98,10,10,10,13,6,,0.00,0,,335
2013-7-3,91,76,62,52,46,37,42,30,22,30.10,30.04,29.97,10,10,10,13,9,20,0.00,0,,321
2013-7-4,84,70,57,39,35,27,42,27,19,30.02,29.96,29.89,10,10,10,16,7,21,0.00,0,,329
2013-7-5,80,68,53,41,37,32,47,33,24,29.93,29.89,29.85,10,10,10,18,11,22,0.00,0,,315
2013-7-6,84,63,42,45,38,28,62,39,23,29.95,29.88,29.81,10,10,10,14,5,,0.00,0,,341
2013-7-7,89,70,50,46,42,36,58,38,22,29.92,29.87,29.80,10,10,10,13,6,17,0.00,0,,349
2013-7-8,84,72,57,45,40,37,48,32,20,30.10,29.99,29.87,10,10,10,16,10,24,0.00,1,Thunderstorm,328
2013-7-9,91,68,46,48,41,30,58,36,18,30.17,30.09,30.00,10,10,7,10,4,,0.00,0,,352
2013-7-10,91,72,53,48,42,34,54,32,21,30.03,29.95,29.86,10,10,10,15,6,20,0.00,0,,331
2013-7-11,82,72,62,39,33,27,32,24,20,29.96,29.92,29.87,10,10,10,15,10,20,0.00,1,,318
2013-7-12,82,70,57,36,30,23,34,24,17,30.03,29.93,29.87,10,10,10,18,9,22,0.00,0,,318
2013-7-13,82,66,51,37,33,27,44,30,17,30.14,30.09,30.03,10,10,5,16,11,22,0.00,0,,333
2013-7-14,87,68,48,43,37,30,58,32,18,30.14,30.06,29.95,10,10,10,13,6,,0.00,0,,354
2013-7-15,89,68,48,43,37,28,50,31,18,30.01,29.96,29.90,10,10,10,16,6,24,0.00,0,,339
2013-7-16,93,74,55,48,41,34,46,32,21,29.95,29.89,29.79,10,10,9,26,8,31,0.02,1,Thunderstorm,327
2013-7-17,89,72,55,52,44,37,67,38,20,30.14,30.05,29.91,10,10,10,13,5,18,0.00,0,,343
2013-7-18,93,70,48,45,39,32,58,31,14,30.19,30.12,30.04,10,10,10,15,6,17,0.00,0,,345
2013-7-19,96,74,53,46,39,34,47,29,16,30.11,30.05,29.97,10,10,10,13,6,17,0.00,0,,343
2013-7-20,95,72,48,46,37,30,54,30,13,30.03,29.96,29.88,10,10,10,14,4,16,0.00,0,,345
2013-7-21,96,71,46,41,34,28,50,29,11,29.95,29.89,29.83,10,10,10,16,3,26,0.00,0,,176
2013-7-22,93,70,46,39,34,28,50,28,12,30.00,29.96,29.89,10,10,7,20,4,24,0.00,0,,356
2013-7-23,96,71,46,43,36,28,50,28,12,30.09,30.02,29.94,10,10,10,10,3,,0.00,0,,8
2013-7-24,93,70,48,45,37,30,50,28,15,30.05,30.01,29.95,10,10,10,13,3,17,0.00,0,,346
2013-7-25,96,74,53,45,37,27,48,28,14,30.09,30.05,30.01,10,10,5,13,3,16,0.00,0,,4
2013-7-26,96,72,48,39,33,27,47,25,11,30.16,30.08,30.01,10,10,9,13,3,,0.02,0,,346
2013-7-27,87,74,60,37,33,25,35,22,14,30.09,30.01,29.93,10,10,10,14,8,20,0.00,0,,320
2013-7-28,84,66,48,36,30,25,43,27,14,29.96,29.91,29.86,10,10,9,16,5,22,0.00,0,,342
2013-7-29,86,64,42,37,31,25,50,30,14,29.98,29.93,29.89,10,10,3,10,4,,0.00,0,,352
2013-7-30,89,71,53,39,36,30,44,27,16,30.09,30.05,29.98,10,10,10,12,7,,0.00,0,,352
2013-7-31,87,68,50,43,37,30,47,30,20,30.10,30.04,29.96,10,10,10,18,6,24,0.00,0,,329